Weather History for KOZR - September, 2013

Change the Weather History Date:

Tuesday, September 10, 2013

  Actual Average Record
Temperature  
Mean Temperature 81 °F -  
Max Temperature 91 °F 84 °F 97 °F (2010)
Min Temperature 71 °F 65 °F 58 °F (2011)
Cooling Degree Days 16    
Growing Degree Days 31 (Base 50)    
Moisture  
Dew Point 69 °F    
Average Humidity 72    
Maximum Humidity 95    
Minimum Humidity 46    
Precipitation  
Precipitation 0.00 in - - ()
Sea Level Pressure  
Sea Level Pressure 30.12 in    
Wind  
Wind Speed 6 mph (ENE)    
Max Wind Speed 12 mph    
Max Gust Speed -    
Visibility 10 miles    
Events      
Averages and records for this station are not official NWS values.
T = Trace of Precipitation, MM = Missing Value Source: NWS Daily Summary

Daily Weather History Graph

Daily Weather History Graph

Search for Another Location

Airport or City:

Trip Planner

Search our weather history database for the weather conditions in past years. The results will help you decide how hot, cold, wet, or windy it might be!

Date:

Astronomy

Sep. 10, 2013 Rise Set
Actual Time 6:24 AM CDT 6:54 PM CDT
Civil Twilight 5:59 AM CDT 7:19 PM CDT
Nautical Twilight 5:31 AM CDT 7:47 PM CDT
Astronomical Twilight 5:02 AM CDT 8:16 PM CDT
Moon 11:26 AM CDT (9/10) 10:20 PM CDT (9/10)
Length of Visible Light 13h 19m
Length of Day
12h 30m
Waxing Crescent, 28% of the Moon is Illuminated
Sep 10
Waxing Crescent
Sep 12
First Quarter
Sep 19
Full
Sep 26
Last Quarter
Oct 4
New

Hourly Weather History & Observations

Time (CDT) Temp. Heat Index Dew Point Humidity Pressure Visibility Wind Dir Wind Speed Gust Speed Precip Events Conditions
12:58 AM 75.6 °F - 71.8 °F 88% 30.08 in 10.0 mi NW 4.6 mph - N/A   Mostly Cloudy
1:58 AM 74.3 °F - 71.2 °F 90% 30.08 in 10.0 mi ENE 3.5 mph - N/A   Clear
2:58 AM 73.4 °F - 71.2 °F 93% 30.07 in 10.0 mi East 4.6 mph - N/A   Clear
3:58 AM 72.3 °F - 70.2 °F 93% 30.07 in 10.0 mi ENE 5.8 mph - N/A   Clear
4:58 AM 72.3 °F - 70.7 °F 95% 30.09 in 10.0 mi ENE 4.6 mph - N/A   Clear
5:58 AM 71.6 °F - 69.8 °F 94% 30.11 in 10.0 mi ENE 3.5 mph - N/A   Clear
6:58 AM 71.4 °F - 70.0 °F 95% 30.13 in 10.0 mi ENE 4.6 mph - N/A   Clear
7:58 AM 75.0 °F - 70.3 °F 85% 30.14 in 10.0 mi East 5.8 mph - N/A   Clear
8:58 AM 79.7 °F - 69.6 °F 71% 30.16 in 10.0 mi East 8.1 mph - N/A   Clear
9:55 AM 84.2 °F 87.3 °F 68.0 °F 58% 30.17 in 10.0 mi SE 9.2 mph - N/A   Clear
10:55 AM 86.0 °F 90.4 °F 69.8 °F 58% 30.18 in 10.0 mi SE 6.9 mph - N/A   Clear
11:55 AM 87.8 °F 91.4 °F 68.0 °F 52% 30.16 in 10.0 mi ESE 9.2 mph - N/A   Partly Cloudy
12:58 PM 88.3 °F 90.9 °F 66.6 °F 48% 30.16 in 10.0 mi East 11.5 mph - N/A   Partly Cloudy
1:58 PM 91.0 °F 94.7 °F 67.5 °F 46% 30.14 in 10.0 mi East 9.2 mph - N/A   Partly Cloudy
2:58 PM 89.2 °F 92.4 °F 67.1 °F 48% 30.12 in 10.0 mi ESE 6.9 mph - N/A   Partly Cloudy
3:58 PM 90.7 °F 94.1 °F 67.5 °F 46% 30.10 in 10.0 mi East 8.1 mph - N/A   Partly Cloudy
4:58 PM 89.2 °F 92.4 °F 67.1 °F 48% 30.10 in 10.0 mi East 5.8 mph - N/A   Partly Cloudy
5:58 PM 86.7 °F 90.3 °F 68.2 °F 54% 30.10 in 10.0 mi East 6.9 mph - N/A   Clear
6:58 PM 81.7 °F 85.2 °F 69.6 °F 67% 30.10 in 10.0 mi NE 4.6 mph - N/A   Clear
7:58 PM 79.0 °F - 69.8 °F 73% 30.11 in 10.0 mi NNE 5.8 mph - N/A   Clear
8:58 PM 76.1 °F - 70.3 °F 82% 30.14 in 10.0 mi NE 6.9 mph - N/A   Clear
9:58 PM 75.2 °F - 70.5 °F 85% 30.14 in 10.0 mi NE 5.8 mph - N/A   Clear
10:58 PM 74.8 °F - 70.5 °F 86% 30.15 in 10.0 mi NE 5.8 mph - N/A   Clear
11:58 PM 76.3 °F - 70.9 °F 83% 30.13 in 10.0 mi ENE 8.1 mph - N/A   Overcast